DW1549 Fauske NO current weather conditions

sailwx.info

Wind from 011

Air temperature 2.8° C
Dewpoint -0.9° C

Last reported at 2016-Feb-07 22:45 UTC.
Time now 2016-Feb-07 23:51 UTC

Location: N 67°16' E 015°25'.
View on Google Maps.

See reports from other nearby stations

  
Tides and Currents Weather Stations Pressure Air Temp Water Temp Dewpoint Dewpoint Depression Visibility Wind Speed Wind Dir Waves Ship Positions
date/time (UTC)wind fromknots sea level pressurealtimeterstation pressurevisibilityair tempwater tempwave heightnotes
2016-Feb-07 22:45 011 2.8
2016-Feb-07 22:35 011 2.8
2016-Feb-07 22:25 011 2.8
2016-Feb-07 22:15 011 2.2
2016-Feb-07 22:05 011 2.2
2016-Feb-07 21:55 011 6 gusting 10 2.2
2016-Feb-07 21:45 011 2 gusting 10 2.2
2016-Feb-07 21:35 011 7 gusting 19 2.8
2016-Feb-07 21:25 011 8 gusting 14 2.8
2016-Feb-07 21:15 011 6 gusting 11 2.8
2016-Feb-07 21:05 011 6 gusting 11 2.8
2016-Feb-07 20:55 011 5 gusting 10 2.8
2016-Feb-07 20:45 011 2.8
2016-Feb-07 20:35 011 1 gusting 10 2.8
2016-Feb-07 20:25 011 1 gusting 13 2.8
2016-Feb-07 20:15 011 7 gusting 13 2.8
2016-Feb-07 20:05 011 4 gusting 13 2.8
2016-Feb-07 19:55 011 8 gusting 18 2.8
2016-Feb-07 19:45 011 12 gusting 20 2.8
2016-Feb-07 19:35 164 10 gusting 13 2.8
2016-Feb-07 19:25 166 5 gusting 13 2.2
2016-Feb-07 19:15 169 9 gusting 19 2.2
2016-Feb-07 19:05 164 8 gusting 13 2.2
2016-Feb-07 18:55 164 6 gusting 14 2.2
2016-Feb-07 18:45 166 2.2
2016-Feb-07 18:35 164 2.2
2016-Feb-07 18:25 168 2.2
2016-Feb-07 18:15 153 2.2
2016-Feb-07 18:05 171 2.2
2016-Feb-07 17:55 176 2.2
2016-Feb-07 17:45 159 2.2
2016-Feb-07 17:35 170 0 gusting 10 2.2
2016-Feb-07 17:25 186 4 gusting 10 2.2
2016-Feb-07 17:15 168 3 gusting 11 2.2
2016-Feb-07 17:05 180 2 gusting 8 1.7
2016-Feb-07 16:55 151 1 gusting 10 2.2
2016-Feb-07 16:45 146 6 gusting 13 2.2
2016-Feb-07 16:35 136 8 gusting 13 2.2
2016-Feb-07 16:25 126 10 gusting 17 2.2
2016-Feb-07 16:15 128 10 gusting 17 2.2
2016-Feb-07 16:05 123 14 gusting 21 2.2
2016-Feb-07 15:55 131 10 gusting 15 2.2
2016-Feb-07 15:45 119 12 gusting 19 2.2
2016-Feb-07 15:35 131 13 gusting 19 2.2
2016-Feb-07 15:25 130 15 gusting 21 2.8
2016-Feb-07 15:15 133 17 gusting 22 2.2
2016-Feb-07 15:05 149 13 gusting 22 2.2
2016-Feb-07 14:55 126 13 gusting 22 2.2
2016-Feb-07 14:45 116 14 gusting 22 2.2
2016-Feb-07 14:35 120 14 gusting 19 2.2
2016-Feb-07 14:25 120 14 gusting 21 2.2
2016-Feb-07 14:15 138 12 gusting 17 2.2
2016-Feb-07 14:05 134 11 gusting 21 2.2
2016-Feb-07 13:55 126 13 gusting 19 2.2
2016-Feb-07 13:45 132 11 gusting 15 2.2
2016-Feb-07 13:35 135 7 gusting 19 2.2
2016-Feb-07 13:25 131 8 gusting 15 2.2
2016-Feb-07 13:15 120 10 gusting 15 2.2
2016-Feb-07 13:05 138 7 gusting 13 2.2
2016-Feb-07 12:55 112 8 gusting 14 1.7
2016-Feb-07 12:45 138 8 gusting 13 2.2
2016-Feb-07 12:35 106 8 gusting 15 2.2
2016-Feb-07 12:25 126 6 gusting 14 1.7
2016-Feb-07 12:15 128 7 gusting 14 1.7
2016-Feb-07 12:05 130 8 gusting 14 1.7
2016-Feb-07 11:55 128 11 gusting 14 1.7
2016-Feb-07 11:45 139 11 gusting 21 1.7
2016-Feb-07 11:35 130 12 gusting 20 1.7
2016-Feb-07 11:25 125 11 gusting 17 1.7
2016-Feb-07 11:15 139 8 gusting 15 1.7
2016-Feb-07 11:05 135 13 gusting 18 1.7
2016-Feb-07 10:55 124 13 gusting 19 1.7
2016-Feb-07 10:45 124 11 gusting 17 1.7
2016-Feb-07 10:35 124 7 gusting 21 1.7
2016-Feb-07 10:25 142 7 gusting 17 1.7
2016-Feb-07 10:15 127 8 gusting 13 1.7
2016-Feb-07 10:05 135 10 gusting 13 1.1
2016-Feb-07 09:55 141 6 gusting 10 0.6
2016-Feb-07 09:45 142 4 gusting 8 0.6
2016-Feb-07 09:35 136 4 gusting 13 0.6
2016-Feb-07 09:25 149 2 gusting 10 0.6
2016-Feb-07 09:15 111 6 gusting 11 -0.0
2016-Feb-07 09:05 133 2 gusting 8 -0.0
2016-Feb-07 08:55 128 0 gusting 8 -0.0
2016-Feb-07 08:45 112 5 gusting 8 -0.0
2016-Feb-07 08:35 116 2 gusting 10 -0.0
2016-Feb-07 08:15 117 6 gusting 8 -0.0
2016-Feb-07 08:05 119 6 gusting 10 -0.0
2016-Feb-07 07:55 128 6 gusting 10 -0.6
2016-Feb-07 07:45 122 2 gusting 6 -1.1
2016-Feb-07 07:35 115 -1.1
2016-Feb-07 07:25 115 0 gusting 6 -1.1
2016-Feb-07 07:15 110 2 gusting 6 -1.1
2016-Feb-07 07:05 065 2 gusting 6 -1.7
2016-Feb-07 06:55 144 1 gusting 4 -2.2
2016-Feb-07 06:45 171 -2.2
2016-Feb-07 06:35 147 -1.7
2016-Feb-07 06:25 151 -2.2
2016-Feb-07 06:15 145 -2.2
2016-Feb-07 06:05 131 0 gusting 5 -2.8
2016-Feb-07 05:55 131 -2.8
2016-Feb-07 05:45 131 -2.2
2016-Feb-07 05:35 131 -2.2
2016-Feb-07 05:25 131 -2.2
2016-Feb-07 05:15 131 -2.8
2016-Feb-07 05:05 131 -2.8
2016-Feb-07 04:55 131 -2.8
2016-Feb-07 04:45 131 -2.8
2016-Feb-07 04:35 131 -2.8
2016-Feb-07 04:25 131 -2.8
2016-Feb-07 04:15 131 -2.8
2016-Feb-07 04:05 131 -2.8
2016-Feb-07 03:55 131 -2.8
2016-Feb-07 03:45 131 -2.2
2016-Feb-07 03:35 131 2 gusting 6 -2.2
2016-Feb-07 03:25 131 -2.2
2016-Feb-07 03:15 130 1 gusting 10 -1.7
2016-Feb-07 03:05 143 2 gusting 7 -1.7
2016-Feb-07 02:55 124 3 gusting 7 -1.7
2016-Feb-07 02:45 125 2 gusting 8 -1.7
2016-Feb-07 02:35 109 -1.7
2016-Feb-07 02:25 089 0 gusting 7 -1.7
2016-Feb-07 02:15 061 1 gusting 6 -1.7
2016-Feb-07 02:05 077 1 gusting 6 -2.2
2016-Feb-07 01:55 113 1 gusting 6 -2.2
2016-Feb-07 01:45 107 0 gusting 7 -2.2
2016-Feb-07 01:35 098 1 gusting 10 -2.2
2016-Feb-07 01:25 118 0 gusting 10 -2.2
2016-Feb-07 01:15 120 7 gusting 13 -2.2
2016-Feb-07 01:05 143 4 gusting 10 -2.2
2016-Feb-07 00:55 113 4 gusting 11 -2.2
2016-Feb-07 00:45 111 4 gusting 13 -2.2
2016-Feb-07 00:35 121 5 gusting 13 -2.2
2016-Feb-07 00:25 127 8 gusting 14 -2.2
2016-Feb-07 00:15 116 8 gusting 14 -2.2
2016-Feb-07 00:05 123 10 gusting 14 -2.2
2016-Feb-06 23:55 127 7 gusting 13 -2.2
2016-Feb-06 23:45 114 7 gusting 14 -2.2
2016-Feb-06 23:35 137 7 gusting 13 -2.2
2016-Feb-06 23:25 130 10 gusting 17 -2.2
2016-Feb-06 23:15 115 7 gusting 17 -2.2
2016-Feb-06 23:05 112 8 gusting 17 -2.2
2016-Feb-06 22:55 116 10 gusting 15 -2.2
2016-Feb-06 22:45 132 11 gusting 17 -2.2
2016-Feb-06 22:35 127 11 gusting 17 -2.8
2016-Feb-06 22:25 139 8 gusting 17 -2.8
2016-Feb-06 22:15 132 10 gusting 15 -2.8
2016-Feb-06 22:05 154 8 gusting 13 -2.8
2016-Feb-06 21:55 154 9 gusting 15 -2.8
2016-Feb-06 21:45 152 10 gusting 13 -2.8
2016-Feb-06 21:35 150 9 gusting 14 -2.8
2016-Feb-06 21:25 135 7 gusting 13 -2.8
2016-Feb-06 21:15 140 6 gusting 11 -2.2
2016-Feb-06 21:05 144 7 gusting 15 -2.2
2016-Feb-06 20:55 131 11 gusting 13 -2.2
2016-Feb-06 20:45 144 12 gusting 17 -2.2
2016-Feb-06 20:35 123 11 gusting 17 -2.2
2016-Feb-06 20:25 127 11 gusting 20 -2.2
2016-Feb-06 20:15 126 12 gusting 19 -2.2
2016-Feb-06 20:05 140 8 gusting 17 -2.2
2016-Feb-06 19:55 133 12 gusting 17 -2.2
2016-Feb-06 19:45 125 11 gusting 15 -2.2
2016-Feb-06 19:35 133 10 gusting 14 -2.2
2016-Feb-06 19:25 129 11 gusting 18 -2.2
2016-Feb-06 19:15 134 10 gusting 15 -2.2
2016-Feb-06 19:05 135 9 gusting 17 -2.2
2016-Feb-06 18:55 140 10 gusting 15 -2.2
2016-Feb-06 18:45 151 10 gusting 14 -2.2
2016-Feb-06 18:35 142 10 gusting 15 -2.2
2016-Feb-06 18:25 151 7 gusting 13 -2.2
2016-Feb-06 18:15 139 8 gusting 13 -2.2
2016-Feb-06 18:05 148 6 gusting 14 -2.2
2016-Feb-06 17:55 133 6 gusting 15 -1.7
2016-Feb-06 17:45 143 10 gusting 17 -1.7
2016-Feb-06 17:35 144 12 gusting 19 -1.7
2016-Feb-06 17:25 139 6 gusting 15 -1.7
2016-Feb-06 17:15 156 7 gusting 17 -1.7
2016-Feb-06 17:05 136 10 gusting 15 -1.7
2016-Feb-06 16:55 140 10 gusting 19 -1.7
2016-Feb-06 16:45 145 10 gusting 19 -1.7
2016-Feb-06 16:35 148 10 gusting 19 -1.7
2016-Feb-06 16:25 138 12 gusting 19 -1.7
2016-Feb-06 16:15 135 11 gusting 20 -1.7
2016-Feb-06 16:05 140 12 gusting 19 -1.7
2016-Feb-06 15:55 146 11 gusting 17 -1.7
2016-Feb-06 15:45 142 12 gusting 18 -1.7
2016-Feb-06 15:35 135 10 gusting 15 -1.7
2016-Feb-06 15:25 132 13 gusting 20 -1.7
2016-Feb-06 15:15 157 12 gusting 19 -1.1
2016-Feb-06 15:05 146 10 gusting 20 -1.1
2016-Feb-06 14:55 132 13 gusting 22 -1.1
2016-Feb-06 14:45 120 14 gusting 24 -1.1
2016-Feb-06 14:35 113 12 gusting 19 -1.1
2016-Feb-06 14:25 134 11 gusting 20 -1.1
2016-Feb-06 14:15 112 14 gusting 21 -1.1
2016-Feb-06 14:05 151 13 gusting 22 -1.1
2016-Feb-06 13:55 125 14 gusting 22 -1.1
2016-Feb-06 13:45 133 16 gusting 24 -1.1
2016-Feb-06 13:35 129 14 gusting 30 -1.1
2016-Feb-06 13:25 132 13 gusting 26 -1.1
2016-Feb-06 13:15 114 13 gusting 28 -1.1
2016-Feb-06 13:05 132 14 gusting 26 -1.1
2016-Feb-06 12:55 120 17 gusting 28 -1.1
2016-Feb-06 12:45 133 14 gusting 33 -1.1
2016-Feb-06 12:35 123 18 gusting 30 -1.1
2016-Feb-06 12:25 123 16 gusting 31 -1.1
2016-Feb-06 12:15 107 19 gusting 30 -1.1
2016-Feb-06 12:05 126 16 gusting 28 -0.6
2016-Feb-06 11:55 120 17 gusting 28 -0.6
2016-Feb-06 11:45 129 14 gusting 27 -0.6
2016-Feb-06 11:35 112 17 gusting 27 -0.6
2016-Feb-06 11:25 118 19 gusting 28 -0.6
2016-Feb-06 11:15 126 15 gusting 26 -0.0
2016-Feb-06 11:05 166 22 gusting 28 -0.0
2016-Feb-06 10:55 128 17 gusting 28 -0.0
2016-Feb-06 10:45 128 19 gusting 28 -0.0
2016-Feb-06 10:35 124 17 gusting 27 -0.0
2016-Feb-06 10:25 124 18 gusting 22 -0.0
2016-Feb-06 10:16 120 14 gusting 26 -0.0
2016-Feb-06 10:05 122 14 gusting 24 -0.0
2016-Feb-06 09:55 122 15 gusting 22 -0.0
2016-Feb-06 09:45 134 14 gusting 30 -0.0
2016-Feb-06 09:35 119 17 gusting 28 -0.0
2016-Feb-06 09:25 136 14 gusting 26 -0.0
2016-Feb-06 09:15 116 16 gusting 31 -0.0
2016-Feb-06 09:05 130 21 gusting 28 -0.6
2016-Feb-06 08:55 132 18 gusting 30 -0.6
2016-Feb-06 08:45 120 18 gusting 26 -0.6
2016-Feb-06 08:35 118 15 gusting 28 -0.6
2016-Feb-06 08:25 130 15 gusting 28 -0.6
2016-Feb-06 08:15 118 17 gusting 28 -0.6
2016-Feb-06 08:05 137 20 gusting 30 -0.6
2016-Feb-06 07:55 133 19 gusting 28 -0.6
2016-Feb-06 07:45 118 19 gusting 34 -0.6
2016-Feb-06 07:35 115 19 gusting 28 -0.6
2016-Feb-06 07:26 078 22 gusting 32 -0.6
2016-Feb-06 07:15 134 19 gusting 31 -0.0
2016-Feb-06 07:05 119 18 gusting 27 -0.0
2016-Feb-06 06:56 116 14 gusting 21 -0.0
2016-Feb-06 06:45 113 13 gusting 22 -0.0
2016-Feb-06 06:36 124 13 gusting 26 -0.0
2016-Feb-06 06:25 129 15 gusting 26 -0.0
2016-Feb-06 06:15 126 16 gusting 28 -0.6
2016-Feb-06 06:05 130 16 gusting 24 -0.6
2016-Feb-06 05:55 124 14 gusting 26 -0.6
2016-Feb-06 05:45 133 17 gusting 26 -0.6
2016-Feb-06 05:35 118 17 gusting 25 -1.1
2016-Feb-06 05:26 125 14 gusting 26 -1.1
2016-Feb-06 05:15 125 18 gusting 25 -1.1
2016-Feb-06 05:05 116 17 gusting 24 -1.1
2016-Feb-06 04:55 120 15 gusting 22 -1.1
2016-Feb-06 04:45 137 13 gusting 20 -1.1
2016-Feb-06 04:35 121 14 gusting 25 -1.1
2016-Feb-06 04:25 136 14 gusting 21 -1.1
2016-Feb-06 04:15 125 13 gusting 22 -1.1
2016-Feb-06 04:06 127 14 gusting 24 -1.1
2016-Feb-06 03:55 125 12 gusting 24 -1.7
2016-Feb-06 03:45 131 14 gusting 22 -1.7
2016-Feb-06 03:35 131 10 gusting 21 -1.1
2016-Feb-06 03:25 112 12 gusting 19 -1.7
2016-Feb-06 03:15 131 10 gusting 21 -1.7
2016-Feb-06 03:05 154 9 gusting 17 -1.7
2016-Feb-06 02:55 146 7 gusting 20 -1.1
2016-Feb-06 02:45 135 8 gusting 19 -1.1
2016-Feb-06 02:35 129 11 gusting 21 -1.1
2016-Feb-06 02:25 122 7 gusting 19 -1.1
2016-Feb-06 02:15 122 10 gusting 17 -1.1
2016-Feb-06 02:05 115 8 gusting 18 -1.1
2016-Feb-06 01:55 115 8 gusting 20 -1.1
2016-Feb-06 01:45 121 8 gusting 13 -1.7
2016-Feb-06 01:35 107 7 gusting 17 -1.7
2016-Feb-06 01:25 127 7 gusting 18 -1.7
2016-Feb-06 01:15 121 8 gusting 15 -1.7
2016-Feb-06 01:05 130 9 gusting 13 -2.2
2016-Feb-06 00:55 132 6 gusting 13 -2.8
2016-Feb-06 00:45 143 6 gusting 11 -4.4
2016-Feb-06 00:35 218 0 gusting 8 -5.0
2016-Feb-06 00:25 345 4 gusting 8 -3.9
2016-Feb-06 00:15 327 3 gusting 10 -4.4
2016-Feb-06 00:05 094 1 gusting 6 -4.4
2016-Feb-05 23:55 125 0 gusting 10 -4.4
2016-Feb-05 23:45 124 1 gusting 5 -5.0
2016-Feb-05 23:35 124 -4.4
2016-Feb-05 23:25 124 0 gusting 2 -3.9
2016-Feb-05 23:15 124 -3.9
2016-Feb-05 23:05 124 2 gusting 8 -3.9